Location: Overspoor
(51.4747°N, 5.6641°E)
Time: 15:07:08
(UTC+02:00)

RS-15 - Pass Details

Date: 03 July 2022
Orbit: 1881 x 2163 km, 64.8° (Epoch: 13 August)

Event Time Altitude Azimuth Distance (km) Brightness Sun altitude
Rises 02:42:31 0° 321° (NW) 5,701 11.0 -14.4°
Reaches altitude 10° 02:46:36 10° 311° (NW) 4,687 10.4 -14.2°
Maximum altitude 02:56:23 30° 258° (WSW) 3,302 9.0 -13.8°
Enters shadow 03:04:04 15° 210° (SSW) 4,147 9.1 -13.4°
